Home   Weather   Mariehamn   Past weeks

Flag for Åland Islands Past Weather in Mariehamn, Åland Islands — Yesterday and Last 2 Weeks

Now
43 °F

Sunny.


Feels Like: 35 °F
Forecast: 35 / 41 °F
Wind: 15 mph from North

Location: Mariehamn / Aland Island

Current Time: Apr 29, 2017 at 7:09:44 pm

Latest Report: Apr 29, 2017 at 6:20 pm


Visibility: 10 mi

Pressure: 30.04 "Hg

Humidity: 61%

Dew Point: 30 °F

Location of MariehamnLocation

Past Weather in Mariehamn — Graph

°F

Mariehamn Temperature Yesterday

Maximum temperature yesterday: 46 °F (at 1:20 pm)
Minimum temperature yesterday: 28 °F (at 1:20 am)
Average temperature yesterday: 38 °F

High & Low Weather Summary for the Past Weeks

 TemperatureHumidityPressure
High52 °F (Apr 21, 1:50 pm)100% (Apr 20, 7:20 pm)30.51 "Hg (Apr 20, 7:20 pm)
Low19 °F (Apr 15, 4:50 am)33% (Apr 17, 3:50 pm)29.30 "Hg (Apr 22, 2:50 am)
Average36 °F72%29.86 "Hg
* Reported Apr 14 5:20 pm — Apr 29 5:50 pm, Mariehamn, Weather by CustomWeather, © 2017

Note: Actual official high and low records may vary slightly from our data, if they occured in-between our weather recording intervals... More about our weather records

Advertising

Mariehamn Weather History for the Previous 24 Hours

Scroll right to see more
 ConditionsComfort  
Time TempWeatherWind HumidityBarometerVisibility
5:50 pm
Sat, Apr 29
43 °FSunny.14 mph61%30.07 "Hg10 mi
5:20 pm43 °FPassing clouds.14 mph61%30.07 "HgN/A
4:50 pm43 °FPassing clouds.14 mph61%30.07 "HgN/A
4:20 pm45 °FPassing clouds.15 mph53%30.07 "HgN/A
3:50 pm45 °FSunny.17 mph49%30.07 "Hg10 mi
3:20 pm46 °FSunny.17 mph50%30.07 "Hg10 mi
2:50 pm46 °FSunny.18 mph50%30.07 "Hg10 mi
2:20 pm46 °FPassing clouds.20 mph43%30.07 "HgN/A
1:50 pm46 °FSunny.21 mph46%30.07 "Hg10 mi
1:20 pm46 °FPassing clouds.18 mph46%30.07 "HgN/A
12:50 pm46 °FPassing clouds.16 mph46%30.09 "HgN/A
12:20 pm46 °FPassing clouds.16 mph46%30.09 "HgN/A
11:50 am46 °FPassing clouds.17 mph50%30.12 "HgN/A
11:20 am46 °FPassing clouds.10 mph46%30.12 "HgN/A
10:50 am45 °FPassing clouds.10 mph49%30.12 "HgN/A
10:20 am45 °FPassing clouds.10 mph57%30.12 "HgN/A
9:50 am43 °FSunny.10 mph61%30.12 "Hg10 mi
9:20 am43 °FPassing clouds.9 mph66%30.12 "HgN/A
8:50 am41 °FPassing clouds.9 mph70%30.15 "HgN/A
8:20 am39 °FPassing clouds.8 mph75%30.15 "HgN/A
7:50 am37 °FSunny.7 mph81%30.15 "Hg10 mi
7:20 am36 °FSunny.8 mph81%30.15 "Hg10 mi
6:50 am36 °FSunny.7 mph81%30.15 "Hg10 mi
6:20 am36 °FSunny.7 mph81%30.15 "Hg10 mi
5:50 am34 °FSunny.7 mph87%30.15 "Hg10 mi
5:20 am34 °FClear.6 mph87%30.15 "Hg10 mi
4:50 am34 °FClear.7 mph87%30.15 "Hg10 mi
4:20 am36 °FClear.7 mph81%30.15 "Hg10 mi
3:50 am36 °FClear.8 mph75%30.15 "Hg10 mi
3:20 am37 °FClear.8 mph70%30.15 "Hg10 mi
2:50 am36 °FClear.7 mph75%30.18 "Hg10 mi
2:20 am36 °FClear.7 mph75%30.18 "Hg10 mi
1:50 am36 °FClear.7 mph75%30.18 "Hg10 mi
1:20 am36 °FClear.6 mph75%30.18 "Hg10 mi
12:50 am36 °FClear.7 mph81%30.18 "Hg10 mi
12:20 am34 °FClear.7 mph87%30.18 "Hg10 mi
11:50 pm
Fri, Apr 28
34 °FClear.8 mph87%30.18 "Hg10 mi
11:20 pm34 °FClear.9 mph87%30.18 "Hg10 mi
10:50 pm34 °FPassing clouds.9 mph81%30.18 "HgN/A
10:20 pm36 °FClear.8 mph81%30.18 "Hg10 mi
9:50 pm36 °FPassing clouds.8 mph81%30.18 "HgN/A
9:20 pm39 °FSunny.10 mph70%30.18 "Hg10 mi
8:50 pm39 °FSunny.10 mph70%30.18 "Hg10 mi
8:20 pm41 °FSunny.10 mph66%30.18 "Hg10 mi
7:50 pm43 °FSunny.12 mph57%30.18 "Hg10 mi
7:20 pm43 °FSunny.10 mph61%30.18 "Hg10 mi
Weather by CustomWeather, © 2017

See weather overviewHow to use our weather pages